#timestamp,LO_Frequency,Hit 
1504911615.2,286046990.3,N
1504911635.0,286046989.8,N
1504911635.9,286046989.8,N
1504911655.7,286046989.7,N
1504911675.6,286046990.8,N
1504911695.4,286046986.2,N
1504911715.2,286046986.3,N
1504911735.1,286046985.7,N
1504911736.0,286046985.7,N
1504911755.8,286046990.9,N
1504911775.6,286046988.8,N
1504911795.5,286046988.5,N
1504911815.3,286046989.8,N
1504911835.1,286046992.7,N
1504911855.9,286046994.8,N
1504911875.7,286046999.3,N
1504911895.5,286047000.2,N
1504911915.3,286047007.5,N
1504911935.2,286047010.3,N
1504911955.0,286047009.3,N
1504911955.9,286047009.3,N
1504911975.7,286047008.2,N
1504911995.6,286047014.0,N
1504912015.4,286047012.5,N
1504912035.2,286047012.1,N
1504912055.1,286047010.7,N
1504912056.0,286047010.7,N
1504912075.8,286047009.2,N
1504912095.6,286047010.8,N
1504912115.5,286047012.1,N
1504912135.3,286047010.4,N
1504912155.1,286047011.2,N
1504912175.9,286047011.2,N
1504912195.7,286047011.1,N
1504912215.5,286047014.8,N
1504912235.4,286047016.7,N
1504912255.2,286047015.9,N
1504912275.0,286047017.9,N
1504912275.9,286047017.9,N
1504912295.8,286047016.4,N
1504912315.6,286047014.8,N
1504912335.4,286047013.1,N
1504912355.3,286047014.4,N
1504912375.1,286047017.7,N
1504912376.0,286047017.7,P
1504912395.8,286047007.6,N
1504912415.7,286047005.0,N
1504912435.5,286047006.1,N
1504912455.3,286047008.7,N
1504912475.2,286047008.5,N
1504912495.9,286047009.1,N
1504912515.7,286047008.1,N
1504912535.5,286047010.0,N
1504912555.4,286047007.8,N
1504912575.2,286047009.9,P
1504912595.0,286047002.1,P
1504912596.0,286047002.1,N
1504912615.8,286047002.7,N
1504912635.6,286047001.8,N
1504912655.4,286047002.3,N
1504912675.3,286047001.4,N
1504912695.1,286047000.5,N
1504912715.8,286046999.6,N
1504912735.7,286046996.8,N
1504912755.5,286046998.6,N
1504912775.3,286047000.7,N
1504912795.2,286046999.2,N
1504912815.9,286047002.7,N
1504912835.7,286047003.6,N
1504912855.6,286047000.7,N
1504912875.4,286046997.4,N
1504912895.2,286046990.4,N
1504912915.1,286046985.5,P
1504912916.0,286046985.5,N
1504912935.8,286046985.8,N
1504912955.6,286046983.9,N
1504912975.5,286046986.7,N
1504912995.3,286046986.3,N
1504913015.1,286046983.5,P
1504913035.9,286046995.6,N
1504913055.7,286046992.5,N
1504913075.5,286046991.4,N
1504913095.4,286046991.0,N
1504913115.2,286046990.1,N
1504913135.0,286046993.1,N
1504913135.9,286046993.1,N
1504913155.8,286046992.6,N
1504913175.6,286046990.1,P
1504913195.4,286046999.1,N
1504913215.3,286046997.7,N
1504913235.1,286046993.5,N
1504913236.0,286046993.5,N
1504913255.8,286046996.2,N
1504913275.7,286046995.1,N
1504913295.5,286046993.4,N
1504913315.3,286046997.5,N
1504913335.2,286046999.4,N
1504913355.9,286046996.4,N
1504913375.7,286046996.1,N
1504913395.5,286046995.6,N
1504913415.4,286046994.2,N
1504913435.2,286046993.9,N
1504913455.1,286046991.4,P
1504913456.0,286046991.4,P
1504913475.8,286046994.9,N
1504913495.6,286046998.4,N
1504913515.4,286046996.7,N
1504913535.3,286046997.7,N
1504913555.1,286046995.2,N
1504913575.8,286046995.7,N
1504913595.7,286046993.7,N
1504913615.5,286046993.4,N
1504913635.3,286046994.5,N
1504913655.2,286046990.8,P
1504913675.0,286046995.2,N
1504913675.9,286046995.2,N
1504913695.7,286047000.5,N
1504913715.6,286047001.1,N
1504913735.4,286047000.3,N
1504913755.2,286047001.5,N
1504913775.1,286046999.9,N
1504913776.0,286046999.9,N
1504913795.8,286047000.9,N
1504913815.6,286046999.9,N
1504913835.5,286047001.0,N
1504913855.3,286046997.2,N
1504913875.1,286047002.7,N
1504913895.9,286047006.3,N
1504913915.7,286047010.4,N
1504913935.5,286047011.4,N
1504913955.4,286047014.1,N
1504913975.2,286047017.0,N
1504913995.0,286047016.9,N
1504913995.9,286047016.9,N
1504914015.8,286047014.3,N
1504914035.6,286047013.8,N
1504914055.4,286047017.9,N
1504914075.2,286047019.8,N
1504914095.1,286047020.6,N
1504914096.0,286047020.6,N
1504914115.8,286047020.7,N
1504914135.6,286047020.7,N
1504914155.5,286047024.6,N
1504914175.3,286047024.0,N
1504914195.1,286047024.3,N
1504914215.9,286047024.8,N
1504914235.7,286047021.0,N
1504914255.5,286047020.7,N
1504914275.4,286047025.5,N
1504914295.2,286047025.3,N
1504914315.0,286047027.9,P
1504914315.9,286047027.9,P
1504914335.8,286047015.5,N
1504914355.6,286047016.9,N
1504914375.4,286047014.8,N
1504914395.3,286047014.4,N
1504914415.1,286047016.4,N
1504914416.0,286047016.4,N
1504914435.8,286047014.1,N
1504914455.7,286047015.6,P
1504914475.5,286046998.0,N
1504914495.3,286046998.6,N
1504914515.2,286046996.8,N
1504914535.9,286047000.4,N
1504914555.7,286047002.1,N
1504914575.6,286047000.1,N
1504914595.4,286047003.2,N
1504914615.2,286047007.1,N
1504914635.0,286047004.5,N
1504914636.0,286047004.5,N
1504914655.8,286047007.2,N
1504914675.6,286047001.7,N
1504914695.4,286047001.8,N
1504914715.3,286046998.3,N
1504914735.1,286047002.2,N
1504914755.8,286047000.4,N
1504914775.7,286047003.7,N
1504914795.5,286047001.8,N
1504914815.3,286047003.4,N
1504914835.2,286047004.3,N
1504914855.9,286047005.7,N
1504914875.7,286047004.8,N
1504914895.6,286047006.6,N
1504914915.4,286047003.7,N
1504914935.2,286046999.6,N
1504914955.0,286046991.7,N
1504914955.9,286046991.7,N
1504914975.8,286046991.3,N
1504914995.6,286046985.3,N
1504915015.4,286046986.1,N
1504915035.3,286046987.4,N
1504915055.1,286046987.3,N
1504915075.8,286046989.3,N
1504915095.7,286046989.5,N
1504915115.5,286046987.6,N
1504915135.3,286046987.5,N
1504915155.2,286046983.9,N
1504915175.9,286046986.3,N
1504915195.7,286046984.0,N
